When you browse on this site, cookies collect data to enhance your experience and personalize the content and advertising you see.
Visit our Privacy Policy to learn more. By continuing to use the site, you agree to this use of cookies and data.
  • In Österreich
  • Länderverzeichnis
  • Für 7 Tage
  • Wassertemperatur
  • Wetterkarte
  • News
  • Widgets
  • user-avatar
    Anmelden

    Stündliche Wetter Avejru

    Heute, 7 April, Dienstag

    Zeit Temperatur Niederschläge Wind Luftdruck Luftfeuchtigkeit
    00:00 +14°C° 0.4 mm 4 m/S 763 mmHg 93%
    01:00 +14°C° 0.4 mm 4 m/S 763 mmHg 93%
    02:00 +13°C° 0.4 mm 4 m/S 762 mmHg 94%
    03:00 +13°C° 0.3 mm 4 m/S 763 mmHg 94%
    04:00 +13°C° 0.3 mm 4 m/S 763 mmHg 94%
    05:00 +14°C° 0.3 mm 4 m/S 763 mmHg 94%
    06:00 +15°C° 0.1 mm 4 m/S 763 mmHg 90%
    07:00 +17°C° 0.1 mm 4 m/S 763 mmHg 86%
    08:00 +19°C° 0.1 mm 4 m/S 764 mmHg 82%
    09:00 +20°C° 0.1 mm 4 m/S 764 mmHg 76%
    10:00 +21°C° 0.1 mm 4 m/S 764 mmHg 70%
    11:00 +22°C° 0.1 mm 4 m/S 764 mmHg 64%
    12:00 +22°C° 0.1 mm 4 m/S 764 mmHg 65%
    13:00 +22°C° 0.1 mm 4 m/S 764 mmHg 67%
    14:00 +22°C° 0.1 mm 4 m/S 763 mmHg 68%
    15:00 +21°C° 0.1 mm 3 m/S 763 mmHg 73%
    16:00 +20°C° 0.1 mm 2 m/S 763 mmHg 78%
    17:00 +19°C° 0.1 mm 2 m/S 763 mmHg 83%
    18:00 +18°C° 0 mm 1 m/S 764 mmHg 87%
    19:00 +16°C° 0 mm 1 m/S 764 mmHg 90%
    20:00 +15°C° 0 mm 1 m/S 765 mmHg 93%
    21:00 +15°C° 0 mm 1 m/S 765 mmHg 94%
    22:00 +15°C° 0 mm 2 m/S 765 mmHg 94%
    23:00 +15°C° 0 mm 2 m/S 765 mmHg 94%

    Morgen, 8 April, Mittwoch

    Zeit Temperatur Niederschläge Wind Luftdruck Luftfeuchtigkeit
    00:00 +14°C° 0 mm 2 m/S 765 mmHg 94%
    01:00 +14°C° 0 mm 2 m/S 765 mmHg 94%
    02:00 +14°C° 0 mm 2 m/S 764 mmHg 94%
    03:00 +15°C° 0 mm 2 m/S 764 mmHg 94%
    04:00 +15°C° 0 mm 2 m/S 764 mmHg 94%
    05:00 +15°C° 0 mm 2 m/S 764 mmHg 93%
    06:00 +16°C° 0 mm 2 m/S 764 mmHg 89%
    07:00 +17°C° 0 mm 2 m/S 764 mmHg 84%
    08:00 +19°C° 0 mm 3 m/S 765 mmHg 79%
    09:00 +19°C° 0 mm 3 m/S 765 mmHg 79%
    10:00 +19°C° 0 mm 3 m/S 765 mmHg 80%
    11:00 +19°C° 0 mm 3 m/S 764 mmHg 80%
    12:00 +19°C° 0 mm 2 m/S 764 mmHg 82%
    13:00 +18°C° 0 mm 2 m/S 764 mmHg 84%
    14:00 +19°C° 0 mm 1 m/S 764 mmHg 85%
    15:00 +19°C° 0 mm 1 m/S 764 mmHg 87%
    16:00 +18°C° 0 mm 1 m/S 764 mmHg 88%
    17:00 +18°C° 0 mm 1 m/S 763 mmHg 89%
    18:00 +18°C° 0 mm 1 m/S 764 mmHg 89%
    19:00 +18°C° 0 mm 1 m/S 764 mmHg 89%
    20:00 +18°C° 0 mm 1 m/S 764 mmHg 88%
    21:00 +18°C° 0 mm 1 m/S 764 mmHg 88%
    22:00 +18°C° 0 mm 1 m/S 764 mmHg 88%
    23:00 +18°C° 0 mm 1 m/S 764 mmHg 87%

    übermorgen, 9 April, Donnerstag

    Zeit Temperatur Niederschläge Wind Luftdruck Luftfeuchtigkeit
    00:00 +16°C° 0.2 mm 1 m/S 763 mmHg 89%
    01:00 +16°C° 0.2 mm 2 m/S 763 mmHg 91%
    02:00 +16°C° 0.2 mm 2 m/S 763 mmHg 93%
    03:00 +16°C° 1.2 mm 2 m/S 763 mmHg 94%
    04:00 +16°C° 1.2 mm 2 m/S 762 mmHg 96%
    05:00 +15°C° 1.2 mm 2 m/S 762 mmHg 98%
    06:00 +15°C° 1.2 mm 2 m/S 763 mmHg 97%
    07:00 +16°C° 1.2 mm 2 m/S 763 mmHg 97%
    08:00 +16°C° 1.2 mm 2 m/S 763 mmHg 96%
    09:00 +16°C° 0.4 mm 2 m/S 763 mmHg 95%
    10:00 +16°C° 0.4 mm 2 m/S 763 mmHg 94%
    11:00 +16°C° 0.4 mm 2 m/S 763 mmHg 93%
    12:00 +16°C° 0.5 mm 2 m/S 763 mmHg 93%
    13:00 +16°C° 0.5 mm 1 m/S 763 mmHg 94%
    14:00 +16°C° 0.5 mm 1 m/S 762 mmHg 94%
    15:00 +16°C° 0.5 mm 1 m/S 762 mmHg 95%
    16:00 +16°C° 0.5 mm 1 m/S 762 mmHg 95%
    17:00 +16°C° 0.5 mm 1 m/S 762 mmHg 96%
    18:00 +16°C° 0.2 mm 1 m/S 763 mmHg 96%
    19:00 +16°C° 0.2 mm 1 m/S 763 mmHg 96%
    20:00 +16°C° 0.2 mm 1 m/S 764 mmHg 96%
    21:00 +16°C° 0 mm 1 m/S 764 mmHg 96%
    22:00 +16°C° 0 mm 1 m/S 764 mmHg 96%
    23:00 +16°C° 0 mm 1 m/S 764 mmHg 96%

    10 April, Freitag

    Zeit Temperatur Niederschläge Wind Luftdruck Luftfeuchtigkeit
    00:00 +16°C° 0 mm 1 m/S 764 mmHg 96%
    01:00 +15°C° 0 mm 1 m/S 764 mmHg 96%
    02:00 +15°C° 0 mm 1 m/S 763 mmHg 96%
    03:00 +15°C° 0 mm 1 m/S 764 mmHg 96%
    04:00 +15°C° 0 mm 1 m/S 764 mmHg 96%
    05:00 +15°C° 0 mm 1 m/S 764 mmHg 96%
    06:00 +16°C° 0 mm 1 m/S 764 mmHg 94%
    07:00 +16°C° 0 mm 0 m/S 764 mmHg 91%
    08:00 +17°C° 0 mm 0 m/S 764 mmHg 88%
    09:00 +20°C° 0.1 mm 1 m/S 764 mmHg 85%
    10:00 +20°C° 0.1 mm 1 m/S 764 mmHg 82%
    11:00 +20°C° 0.1 mm 2 m/S 764 mmHg 79%
    12:00 +20°C° 0.1 mm 2 m/S 764 mmHg 76%
    13:00 +21°C° 0.1 mm 3 m/S 764 mmHg 73%
    14:00 +21°C° 0.1 mm 4 m/S 763 mmHg 69%
    15:00 +20°C° 0 mm 4 m/S 763 mmHg 72%
    16:00 +20°C° 0 mm 4 m/S 763 mmHg 75%
    17:00 +19°C° 0 mm 4 m/S 763 mmHg 78%
    18:00 +18°C° 0 mm 3 m/S 763 mmHg 83%
    19:00 +16°C° 0 mm 3 m/S 764 mmHg 87%
    20:00 +14°C° 0 mm 3 m/S 764 mmHg 92%
    21:00 +14°C° 0 mm 3 m/S 764 mmHg 92%
    22:00 +14°C° 0 mm 3 m/S 764 mmHg 92%
    23:00 +13°C° 0 mm 3 m/S 764 mmHg 92%

    11 April, Samstag

    Zeit Temperatur Niederschläge Wind Luftdruck Luftfeuchtigkeit
    00:00 +13°C° 0 mm 3 m/S 764 mmHg 92%
    01:00 +13°C° 0 mm 3 m/S 763 mmHg 93%
    02:00 +14°C° 0 mm 2 m/S 763 mmHg 93%
    03:00 +14°C° 0 mm 2 m/S 763 mmHg 93%
    04:00 +14°C° 0 mm 2 m/S 763 mmHg 93%
    05:00 +14°C° 0 mm 2 m/S 763 mmHg 93%
    06:00 +15°C° 0 mm 2 m/S 763 mmHg 86%
    07:00 +18°C° 0 mm 1 m/S 763 mmHg 80%
    08:00 +20°C° 0 mm 1 m/S 763 mmHg 73%
    09:00 +20°C° 0.1 mm 2 m/S 763 mmHg 70%
    10:00 +21°C° 0.1 mm 2 m/S 763 mmHg 67%
    11:00 +22°C° 0.1 mm 3 m/S 763 mmHg 64%
    12:00 +22°C° 0.3 mm 3 m/S 762 mmHg 66%
    13:00 +21°C° 0.3 mm 4 m/S 762 mmHg 68%
    14:00 +21°C° 0.3 mm 4 m/S 761 mmHg 70%
    15:00 +20°C° 0.1 mm 4 m/S 761 mmHg 73%
    16:00 +19°C° 0.1 mm 4 m/S 761 mmHg 76%
    17:00 +19°C° 0.1 mm 4 m/S 761 mmHg 79%
    18:00 +18°C° 0.2 mm 3 m/S 761 mmHg 82%
    19:00 +17°C° 0.2 mm 2 m/S 761 mmHg 86%
    20:00 +16°C° 0.2 mm 2 m/S 761 mmHg 89%
    21:00 +16°C° 0.2 mm 1 m/S 761 mmHg 88%
    22:00 +16°C° 0.3 mm 1 m/S 761 mmHg 88%
    23:00 +16°C° 0.3 mm 1 m/S 761 mmHg 88%

    12 April, Sonntag

    Zeit Temperatur Niederschläge Wind Luftdruck Luftfeuchtigkeit
    00:00 +16°C° 0.1 mm 1 m/S 760 mmHg 89%
    01:00 +16°C° 0.1 mm 2 m/S 760 mmHg 90%
    02:00 +16°C° 0.1 mm 2 m/S 760 mmHg 92%
    03:00 +16°C° 0.6 mm 2 m/S 759 mmHg 93%
    04:00 +16°C° 0.6 mm 1 m/S 759 mmHg 94%
    05:00 +15°C° 0.6 mm 1 m/S 759 mmHg 96%
    06:00 +16°C° 0.8 mm 1 m/S 759 mmHg 95%
    07:00 +16°C° 0.8 mm 1 m/S 759 mmHg 94%
    08:00 +16°C° 0.8 mm 1 m/S 759 mmHg 94%
    09:00 +16°C° 0.3 mm 1 m/S 759 mmHg 93%
    10:00 +17°C° 0.3 mm 2 m/S 759 mmHg 92%
    11:00 +17°C° 0.3 mm 2 m/S 759 mmHg 91%
    12:00 +17°C° 0.7 mm 2 m/S 758 mmHg 92%
    13:00 +16°C° 0.7 mm 2 m/S 758 mmHg 93%
    14:00 +16°C° 0.7 mm 2 m/S 758 mmHg 94%
    15:00 +16°C° 0.2 mm 3 m/S 757 mmHg 94%
    16:00 +16°C° 0.2 mm 3 m/S 757 mmHg 94%
    17:00 +15°C° 0.2 mm 4 m/S 757 mmHg 93%
    18:00 +14°C° 0 mm 4 m/S 757 mmHg 93%
    19:00 +14°C° 0 mm 5 m/S 757 mmHg 93%
    20:00 +13°C° 0 mm 6 m/S 757 mmHg 93%
    21:00 +13°C° 0 mm 6 m/S 756 mmHg 92%
    22:00 +13°C° 0 mm 6 m/S 756 mmHg 92%
    23:00 +11°C° 0 mm 6 m/S 756 mmHg 91%
    Mehr zeigen